Location: Santa Giusta
(39.8800°N, 8.6069°E)
Time: 16:31:04
(UTC+00:00)

Cosmos 2263 Rocket - Pass Details

Date: 02 February 2023
Orbit: 824 x 847 km, 71.0° (Epoch: 31 March)

Event Time Altitude Azimuth Distance (km) Brightness Sun altitude
Rises 17:28:00 0° 332° (NNW) 3,368 5.5 -8.5°
Reaches altitude 10° 17:30:28 10° 328° (NNW) 2,431 4.8 -9.0°
Maximum altitude 17:35:53 55° 252° (WSW) 990 3.0 -10.0°
Drops below altitude 10° 17:41:16 10° 176° (S) 2,418 4.7 -11.0°
Sets 17:43:44 0° 172° (S) 3,349 5.4 -11.5°
